SCP
0 0 0 0 0 0 0 0 0 0 0 0 0 0 0 0 0 0 0 0 0 0 0 0 0 0 0 0 0 0 0 0 0 0 0 0 0 0 0 0 0 0 0
0 0 0 0 0 0 0 0 0 0 0 0 0 0 0 0 0 0 0 0 0 0 0 0 0 0 0 0 0 0 0 0 0 0 0 0 0 0 0 0 0 0 0
0 0 0 0 0 0 0 0 0 0 0 0 0 0 0 0 0 0 0 0 0 0 0 0 0 0 0 0 0 0 0 0 0 0 0 0 0 0 0 0 0 0 0
0 0 0 0 0 0 0 0 0 0 0 0 0 0 0 0 0 0 0 0 0 0 0 0 0 0 0 0 0 0 0 0 0 0 0 0 0 0 0 0 0 0 0
0 0 0 0 0 0 0 0 0 0 0 0 0 0 0 0 0 0 0 0 0 0 0 0 0 0 0 0 0 0 0 0 0 0 0 0 0 0 0 0 0 0 0
0 0 0 0 0 0 0 0 0 0 0 0 0 0 0 0 0 0 0 0 0 0 0 0 0 0 0 0 0 0 0 0 0 0 0 0 0 0 0 0 0 0 0
0 0 0 0 0 0 0 0 0 0 0 0 0 0 0 0 0 0 0 0 0 0 0 0 0 0 0 0 0 0 0 0 0 0 0 0 0 0 0 0 0 0 0
0 0 0 0 0 0 0 0 0 0 0 0 0 0 0 0 0 0 0 0 0 0 0 0 0 0 0 0 0 0 0 0 0 0 0 0 0 0 0 0 0 0 0
0 0 0 0 0 0 0 0 0 0 0 0 0 0 0 0 0 0 0 0 0 0 0 0 0 0 0 0 0 0 0 0 0 0 0 0 0 0 0 0 0 0 0
0 0 0 0 0 0 0 0 0 0 0 0 0 0 0 0 0 0 0 0 0 0 0 0 0 0 0 0 0 0 0 0 0 0 0 0 0 0 0 0 0 0 0
0 0 0 0 0 0 0 0 0 0 0 0 0 0 0 0 0 0 0 0 0 0 0 0 0 0 0 0 0 0 0 0 0 0 0 0 0 0 0 0 0 0 0
0 0 0 0 0 0 0 0 0 0 0 0 0 0 0 0 0 0 0 0 0 0 0 0 0 0 0 0 0 0 0 0 0 0 0 0 0 0 0 0 0 0 0
0 0 0 0 0 0 0 0 0 0 0 0 0 0 0 0 0 0 0 0 0 0 0 0 0 0 0 0 0 0 0 0 0 0 0 0 0 0 0 0 0 0 0
0 0 0 0 0 0 0 0 0 0 0 0 0 0 0 0 0 0 0 0 0 0 0 0 0 0 0 0 0 0 0 0 0 0 0 0 0 0 0 0 0 0 0
0 0 0 0 0 0 0 0 0 0 0 0 0 0 0 0 0 0 0 0 0 0 0 0 0 0 0 0 0 0 0 0 0 0 0 0 0 0 0 0 0 0 0
0 0 0 0 0 0 0 0 0 0 0 0 0 0 0 0 0 0 0 0 0 0 0 0 0 0 0 0 0 0 0 0 0 0 0 0 0 0 0 0 0 0 0
0 0 0 0 0 0 0 0 0 0 0 0 0 0 0 0 0 0 0 0 0 0 0 0 0 0 0 0 0 0 0 0 0 0 0 0 0 0 0 0 0 0 0
0 0 0 0 0 0 0 0 0 0 0 0 0 0 0 0 0 0 0 0 0 0 0 0 0 0 0 0 0 0 0 0 0 0 0 0 0 0 0 0 0 0 0
0 0 0 0 0 0 0 0 0 0 0 0 0 0 0 0 0 0 0 0 0 0 0 0 0 0 0 0 0 0 0 0 0 0 0 0 0 0 0 0 0 0 0
0 0 0 0 0 0 0 0 0 0 0 0 0 0 0 0 0 0 0 0 0 0 0 0 0 0 0 0 0 0 0 0 0 0 0 0 0 0 0 0 0 0 0
0 0 0 0 0 0 0 0 0 0 0 0 0 0 0 0 0 0 0 0 0 0 0 0 0 0 0 0 0 0 0 0 0 0 0 0 0 0 0 0 0 0 0
0 0 0 0 0 0 0 0 0 0 0 0 0 0 0 0 0 0 0 0 0 0 0 0 0 0 0 0 0 0 0 0 0 0 0 0 0 0 0 0 0 0 0
0 0 0 0 0 0 0 0 0 0 0 0 0 0 0 0 0 0 0 0 0 0 0 0 0 0 0 0 0 0 0 0 0 0 0 0 0 0 0 0 0 0 0
0 0 0 0 0 0 0 0 0 0 0 0 0 0 0 0 0 0 0 0 0 0 0 0 0 0 0 0 0 0 0 0 0 0 0 0 0 0 0 0 0 0 0
0 0 0 0 0 0 0 0 0 0 0 0 0 0 0 0 0 0 0 0 0 0 0 0 0 0 0 0 0 0 0 0 0 0 0 0 0 0 0 0 0 0 0
0 0 0 0 0 0 0 0 0 0 0 0 0 0 0 0 0 0 0 0 0 0 0 0 0 0 0 0 0 0 0 0 0 0 0 0 0 0 0 0 0 0 0
Wind_Speed
15 12 13 13 13 14 14 15 12 11 8 4 4 3 3 3 3 3 5 5 5 5 4 3 3 3 3 4 5 4 5 4 4 5 8 8 8 8 7 7 8 11 13
11 12 13 14 16 18 17 16 15 13 11 6 4 4 3 3 3 3 3 5 5 4 4 3 3 3 3 4 5 4 3 4 4 4 9 8 8 6 10 7 8 10 9
16 14 15 17 17 19 20 17 16 14 11 8 4 3 2 1 1 2 3 4 4 4 4 4 4 4 3 4 5 5 5 5 4 3 4 8 9 11 9 10 9 8 8
14 13 15 16 19 20 17 16 15 13 12 10 7 7 6 5 5 4 3 4 4 4 4 4 4 4 4 5 6 5 4 5 6 5 4 6 7 9 11 10 7 9 10
14 14 16 18 18 16 15 14 14 14 12 11 10 8 6 5 3 3 4 4 4 4 5 5 4 5 4 6 6 6 6 5 6 6 5 6 6 6 7 13 15 12 8
13 13 11 11 11 12 13 13 15 14 13 12 10 10 9 7 6 5 5 4 3 4 5 5 5 5 5 6 7 6 7 6 7 7 6 6 6 7 7 10 14 15 13
11 10 11 12 13 15 16 15 16 14 14 13 12 11 10 9 9 7 6 5 4 4 6 6 5 5 6 7 7 7 7 7 7 7 7 7 8 8 8 10 12 15 14
9 11 13 13 15 17 17 17 18 14 15 14 12 10 9 7 6 7 6 6 5 5 6 6 6 7 7 8 6 6 7 7 8 10 9 8 8 8 8 9 10 14 14
11 11 10 12 14 16 19 19 19 15 15 14 12 10 9 8 8 7 6 5 5 5 6 6 6 7 7 7 7 7 8 8 8 9 10 10 9 8 8 8 8 10 15
9 10 10 12 13 14 15 14 16 16 13 13 12 10 9 9 8 7 7 7 7 6 6 6 7 7 7 8 7 8 8 9 10 9 11 12 10 9 9 9 9 9 12
12 12 12 11 10 10 12 14 14 13 12 13 11 10 9 9 8 7 7 7 6 7 7 7 7 7 7 8 8 9 9 10 12 12 12 14 13 11 10 9 9 10 10
10 9 9 9 10 13 13 15 15 14 14 13 11 11 9 8 8 8 7 7 7 7 7 7 7 7 8 8 9 11 11 11 13 14 14 15 13 13 11 10 11 10 11
9 7 7 10 13 14 15 15 15 15 13 12 12 11 10 9 9 8 7 7 7 6 6 6 7 8 9 9 10 10 12 13 14 15 15 15 14 13 11 11 11 11 12
9 8 9 11 12 13 14 15 15 14 13 13 12 12 12 11 9 8 7 7 7 6 7 7 8 8 9 10 11 11 13 14 14 13 13 13 12 13 12 12 12 12 11
10 10 12 11 11 12 13 14 14 14 14 14 14 14 11 9 8 8 7 7 6 7 6 7 8 8 8 8 11 12 12 11 10 9 9 10 14 18 15 11 9 9 9
11 11 11 11 13 15 15 15 15 15 14 15 14 11 10 9 9 9 8 7 7 6 6 7 8 9 8 16 22 17 8 7 7 8 8 10 12 16 21 24 23 19 12
11 11 12 13 14 15 16 17 16 14 15 15 13 12 11 11 10 10 8 8 7 6 7 7 8 9 11 19 20 21 10 5 7 7 8 9 11 16 10 17 22 17 20
11 10 10 10 11 11 12 12 12 14 15 15 14 13 12 12 10 9 9 8 6 6 6 7 8 8 11 17 18 19 7 5 7 7 8 9 10 13 16 12 8 9 11
10 9 8 8 8 9 11 11 13 14 15 16 15 14 14 12 11 11 11 8 6 7 7 7 7 7 9 15 17 16 4 6 7 7 8 10 10 20 24 10 8 10 10
7 7 6 5 7 8 10 13 15 16 19 18 16 15 14 14 13 12 10 8 7 7 7 7 6 6 7 12 15 15 4 6 6 6 7 14 17 22 21 9 7 11 10
10 8 7 7 8 7 11 14 16 20 17 13 13 14 14 14 13 10 9 8 7 6 6 6 6 6 7 10 13 15 5 5 5 6 6 8 20 21 20 17 9 15 14
11 9 8 10 8 8 12 15 19 16 11 13 14 15 15 13 11 10 9 8 7 6 6 5 5 5 6 8 10 14 13 11 5 6 6 9 19 20 20 15 17 21 17
11 9 9 11 8 10 14 18 17 11 13 14 15 13 13 12 11 11 10 8 7 6 5 5 5 4 4 5 12 13 14 14 7 5 12 15 17 16 12 16 20 16 9
10 9 8 10 12 11 15 18 11 11 14 15 14 13 13 13 12 10 9 8 8 7 6 6 5 4 4 4 5 6 6 9 8 5 9 13 14 13 13 13 11 8 9
9 8 9 11 14 10 13 14 10 13 15 14 14 13 13 12 12 11 10 10 8 8 7 6 5 4 4 6 10 5 4 4 4 4 3 5 6 7 7 7 7 7 8
9 9 10 12 13 10 11 11 12 14 15 13 13 11 10 10 10 10 8 14 12 15 16 13 10 7 9 10 10 9 9 10 9 4 3 5 6 8 8 9 9 8 8
Wind_Direction
226 211 204 193 185 183 183 182 179 177 166 157 163 174 201 213 234 236 228 220 222 232 237 260 270 272 271 277 288 291 297 293 291 302 308 298 285 281 283 279 284 287 289
226 214 202 193 190 189 188 186 185 181 179 173 165 167 168 193 215 228 222 221 226 237 247 246 257 266 272 284 290 291 285 289 308 302 313 309 305 298 309 290 287 288 288
227 215 205 200 195 195 192 190 187 182 180 169 148 139 131 171 223 223 227 235 237 243 247 254 253 261 255 266 277 279 275 289 290 262 276 302 305 314 299 301 295 288 289
227 216 208 203 202 200 191 188 183 180 177 169 167 167 179 197 212 209 220 242 247 246 247 252 254 256 253 259 271 286 270 277 291 288 251 255 280 298 305 305 295 292 296
223 218 211 208 204 193 186 184 179 179 177 176 175 175 189 199 208 216 234 244 248 246 251 253 252 252 251 256 263 272 267 260 270 280 280 280 278 265 283 300 306 304 295
223 223 215 201 192 181 181 179 180 182 179 179 179 182 190 196 206 219 231 239 241 248 252 253 247 248 251 256 259 259 259 259 263 269 270 274 276 284 281 290 299 302 303
218 216 204 195 188 183 184 183 183 185 183 183 187 190 191 193 204 212 222 228 234 240 249 252 248 250 251 256 257 257 256 256 260 263 266 265 264 269 273 281 291 296 298
218 214 206 198 192 188 186 186 188 187 185 189 193 192 190 191 203 209 209 217 225 235 243 244 246 249 255 263 260 260 259 262 259 269 267 268 269 264 263 269 284 294 296
223 218 207 197 192 190 191 190 189 188 189 191 191 192 191 193 201 206 210 219 228 239 241 241 246 253 256 257 259 259 261 263 264 266 267 266 268 263 260 260 261 276 293
234 225 212 204 198 196 192 190 191 192 188 189 191 195 195 196 198 200 213 221 231 240 247 250 251 255 258 258 258 261 263 264 268 268 267 268 268 265 263 259 259 258 270
229 225 218 206 194 187 188 192 193 191 189 191 192 191 191 193 195 204 215 222 231 236 241 246 251 256 259 259 259 263 267 267 272 273 271 272 272 271 267 262 261 262 263
234 226 212 192 190 193 194 196 196 196 195 191 189 193 189 189 197 209 217 221 229 234 240 248 254 259 264 261 261 269 275 270 273 276 276 275 276 273 271 265 263 265 265
248 231 205 200 202 201 199 199 199 198 192 187 189 192 193 196 203 210 215 218 225 235 244 250 257 262 265 267 266 266 269 270 271 275 276 276 275 274 269 264 265 267 270
247 231 221 216 211 205 203 201 201 196 190 188 191 197 200 201 204 205 209 215 222 236 248 254 259 263 266 269 271 271 269 270 272 273 271 271 272 272 268 266 265 267 271
246 233 228 224 215 209 207 204 201 195 191 191 196 202 199 194 195 201 207 214 224 240 248 259 266 269 271 269 266 265 266 271 278 276 271 273 284 286 285 280 273 272 275
252 242 234 226 219 214 210 205 202 196 191 194 200 197 188 190 197 203 208 216 228 240 251 258 266 273 276 289 295 297 282 282 282 281 281 284 290 293 299 301 299 296 294
257 250 239 230 225 217 208 206 202 191 192 197 196 191 189 194 200 204 209 219 227 238 251 259 264 269 278 294 299 304 306 285 281 282 286 296 297 306 289 289 294 294 296
261 259 250 240 230 217 207 202 191 191 195 198 195 191 189 195 195 201 214 221 223 234 248 258 264 269 280 297 304 307 316 282 279 278 279 283 285 289 290 282 274 264 273
261 263 258 247 232 212 198 189 193 195 199 201 197 192 188 190 193 205 216 218 219 233 243 253 260 266 281 300 303 310 291 284 281 280 284 295 289 298 312 320 297 291 286
277 277 277 256 236 212 183 190 199 200 207 204 198 190 188 190 197 206 210 211 216 231 242 252 254 262 272 295 306 311 287 291 288 286 290 310 314 319 331 330 312 306 302
285 281 270 253 240 201 185 201 206 213 210 197 189 187 189 193 196 199 202 207 215 227 237 251 258 262 272 296 307 309 305 294 300 305 306 308 320 333 338 337 320 318 332
286 279 265 259 242 196 195 211 219 216 193 185 188 189 188 188 190 193 199 204 211 223 236 246 258 251 266 289 299 310 319 323 303 304 305 310 329 340 340 336 332 339 339
280 274 261 264 251 210 205 221 225 198 183 187 192 190 187 188 185 188 195 198 204 215 228 235 249 253 252 278 299 310 319 324 321 307 323 333 338 340 334 331 340 343 329
281 279 271 264 261 230 218 228 219 185 187 192 192 188 187 187 188 189 193 197 200 208 218 226 237 246 255 268 277 274 289 309 316 319 326 335 337 338 334 335 333 328 325
283 279 267 264 265 250 230 226 205 186 192 195 192 190 190 187 189 194 198 199 203 200 205 213 217 224 244 262 285 301 289 293 306 332 324 327 331 333 329 327 327 328 330
290 288 279 272 272 261 243 224 202 193 194 195 194 190 187 186 187 189 199 215 211 222 228 222 213 225 241 272 295 309 317 325 340 358 329 331 331 330 330 329 328 329 334